Погода в Прыганке

Россия / Алтайский край     53°57′48″N   80°48′24″E
темп.,
°C
ветер,
м/с
пор.,
м/с
влажн.,
%
обл.,
%
осадки,
мм/ч
давл.,
гПа
погр.,
м
16 октября, сб
сб1601:00+2св36820 0.0 1034110
04:00+1св36840 0.0 1033110
07:00+1св37870 0.0 1032124
10:00+3всв37770 0.0 1031213
13:00+8всв45535 0.0 1029490
16:00+10всв454716 0.0 1028677
19:00+6всв356650 0.0 102791
22:00+4в237558 0.0 102748
17 октября, вс
вс1701:00+3в227339 0.0 102614
04:00+2в227361 0.0 102611
07:00+1вюв227556 0.0 102610
10:00+3ююв12677 0.0 102679
13:00+8ююз22525 0.0 1025411
16:00+10зюз23470 0.0 1024717
19:00+6з226058 0.0 102512
22:00+5зюз226587 0.0 102519
18 октября, пн
пн1801:00+3зюз2269100 0.0 102533
04:00+2зюз2378100 0.0 102640
07:00+2зюз2284100 0.0 102635
10:00+3юз25768 0.0 1026143
13:00+8юз35545 0.0 1026499
16:00+10зюз35525 0.0 1025834
19:00+7юз22655 0.0 102616
22:00+5юз33705 0.0 102647
19 октября, вт
вт1901:00+4юз33725 0.0 102737
04:00+4ююз22745 0.0 102727
07:00+3ююз22765 0.0 102716
10:00+4ю246995 0.0 1027113
13:00+9ю345189 0.0 1026416
16:00+10ю2348100 0.0 1026525
19:00+7ююв2259100 0.0 102521
22:00+6юв226577 0.0 102527
20 октября, ср
ср2001:00+5юв337280 0.0 102438
04:00+3юв33740 0.0 102436
07:00+3вюв34760 0.0 102354
10:00+4вюв36705 0.0 1022151
13:00+9юв46475 0.0 1020370
16:00+11юв45445 0.0 1018518
19:00+8юв35605 0.0 101778
22:00+6юв356439 0.0 101777